owner,sensor,date,latitude,longitude,vertical_datum,sea_water_temperature,qcFlag 
TABS,ioos:station:wmo:42045:1,2002-09-12T19:30:00Z,26.2168,-96.4998,-2.0,28.87,11111222 
TABS,ioos:station:wmo:42045:1,2002-09-12T20:00:00Z,26.2168,-96.4998,-2.0,28.87,11111222 
TABS,ioos:station:wmo:42045:1,2002-09-12T20:30:00Z,26.2168,-96.4998,-2.0,28.87,11111222 
TABS,ioos:station:wmo:42045:1,2002-09-12T21:00:00Z,26.2168,-96.4998,-2.0,28.94,11111222 
TABS,ioos:station:wmo:42045:1,2002-09-12T21:30:00Z,26.2168,-96.4998,-2.0,28.97,11111222 
TABS,ioos:station:wmo:42045:1,2002-09-12T22:00:00Z,26.2168,-96.4998,-2.0,28.99,11111222 
TABS,ioos:station:wmo:42045:1,2002-09-12T22:30:00Z,26.2168,-96.4998,-2.0,28.89,11111222 
TABS,ioos:station:wmo:42045:1,2002-09-12T23:00:00Z,26.2168,-96.4998,-2.0,28.9,11111222 
TABS,ioos:station:wmo:42045:1,2002-09-12T23:30:00Z,26.2168,-96.4998,-2.0,28.91,11111222 
TABS,ioos:station:wmo:42045:1,2002-09-13T00:00:00Z,26.2168,-96.4998,-2.0,28.92,11111222 
TABS,ioos:station:wmo:42045:1,2002-09-13T00:30:00Z,26.2168,-96.4998,-2.0,28.92,11111222 
TABS,ioos:station:wmo:42045:1,2002-09-13T01:00:00Z,26.2168,-96.4998,-2.0,28.92,11111222 
TABS,ioos:station:wmo:42045:1,2002-09-13T01:30:00Z,26.2168,-96.4998,-2.0,28.9,11111222 
TABS,ioos:station:wmo:42045:1,2002-09-13T02:00:00Z,26.2168,-96.4998,-2.0,28.9,11111222 
TABS,ioos:station:wmo:42045:1,2002-09-13T02:30:00Z,26.2168,-96.4998,-2.0,28.91,11111222 
TABS,ioos:station:wmo:42045:1,2002-09-13T03:00:00Z,26.2168,-96.4998,-2.0,28.9,11111222 
TABS,ioos:station:wmo:42045:1,2002-09-13T03:30:00Z,26.2168,-96.4998,-2.0,28.88,11111222 
TABS,ioos:station:wmo:42045:1,2002-09-13T04:00:00Z,26.2168,-96.4998,-2.0,28.86,11111222 
TABS,ioos:station:wmo:42045:1,2002-09-13T04:30:00Z,26.2168,-96.4998,-2.0,28.81,11111222 
TABS,ioos:station:wmo:42045:1,2002-09-13T05:00:00Z,26.2168,-96.4998,-2.0,28.76,11111222 
TABS,ioos:station:wmo:42045:1,2002-09-13T05:30:00Z,26.2168,-96.4998,-2.0,28.72,11111222 
TABS,ioos:station:wmo:42045:1,2002-09-13T06:00:00Z,26.2168,-96.4998,-2.0,28.69,11111222 
TABS,ioos:station:wmo:42045:1,2002-09-13T06:30:00Z,26.2168,-96.4998,-2.0,28.68,11111222 
TABS,ioos:station:wmo:42045:1,2002-09-13T07:00:00Z,26.2168,-96.4998,-2.0,28.66,11111222 
TABS,ioos:station:wmo:42045:1,2002-09-13T07:30:00Z,26.2168,-96.4998,-2.0,28.64,11111222 
TABS,ioos:station:wmo:42045:1,2002-09-13T08:00:00Z,26.2168,-96.4998,-2.0,28.62,11111222 
TABS,ioos:station:wmo:42045:1,2002-09-13T08:30:00Z,26.2168,-96.4998,-2.0,28.65,11111222 
TABS,ioos:station:wmo:42045:1,2002-09-13T09:00:00Z,26.2168,-96.4998,-2.0,28.65,11111222 
TABS,ioos:station:wmo:42045:1,2002-09-13T09:30:00Z,26.2168,-96.4998,-2.0,28.82,11111222 
TABS,ioos:station:wmo:42045:1,2002-09-13T10:00:00Z,26.2168,-96.4998,-2.0,28.65,11111222 
TABS,ioos:station:wmo:42045:1,2002-09-13T10:30:00Z,26.2168,-96.4998,-2.0,28.73,11111222 
TABS,ioos:station:wmo:42045:1,2002-09-13T11:00:00Z,26.2168,-96.4998,-2.0,28.74,11111222 
TABS,ioos:station:wmo:42045:1,2002-09-13T11:30:00Z,26.2168,-96.4998,-2.0,28.81,11111222 
TABS,ioos:station:wmo:42045:1,2002-09-13T12:00:00Z,26.2168,-96.4998,-2.0,28.88,11111222 
TABS,ioos:station:wmo:42045:1,2002-09-13T12:30:00Z,26.2168,-96.4998,-2.0,28.91,11111222 
TABS,ioos:station:wmo:42045:1,2002-09-13T13:00:00Z,26.2168,-96.4998,-2.0,28.81,11111222 
TABS,ioos:station:wmo:42045:1,2002-09-13T13:30:00Z,26.2168,-96.4998,-2.0,28.83,11111222 
TABS,ioos:station:wmo:42045:1,2002-09-13T14:00:00Z,26.2168,-96.4998,-2.0,28.87,11111222 
TABS,ioos:station:wmo:42045:1,2002-09-13T14:30:00Z,26.2168,-96.4998,-2.0,28.86,11111222 
TABS,ioos:station:wmo:42045:1,2002-09-13T15:00:00Z,26.2168,-96.4998,-2.0,28.89,11111222 
TABS,ioos:station:wmo:42045:1,2002-09-13T15:30:00Z,26.2168,-96.4998,-2.0,28.89,11111222 
TABS,ioos:station:wmo:42045:1,2002-09-13T16:00:00Z,26.2168,-96.4998,-2.0,28.9,11111222 
TABS,ioos:station:wmo:42045:1,2002-09-13T16:30:00Z,26.2168,-96.4998,-2.0,28.94,11111222 
TABS,ioos:station:wmo:42045:1,2002-09-13T17:00:00Z,26.2168,-96.4998,-2.0,28.95,11111222 
TABS,ioos:station:wmo:42045:1,2002-09-13T17:30:00Z,26.2168,-96.4998,-2.0,28.98,11111222 
TABS,ioos:station:wmo:42045:1,2002-09-13T18:00:00Z,26.2168,-96.4998,-2.0,29.0,11111222 
TABS,ioos:station:wmo:42045:1,2002-09-13T18:30:00Z,26.2168,-96.4998,-2.0,28.99,11111222 
TABS,ioos:station:wmo:42045:1,2002-09-13T19:00:00Z,26.2168,-96.4998,-2.0,28.91,11111222 
TABS,ioos:station:wmo:42045:1,2002-09-13T19:30:00Z,26.2168,-96.4998,-2.0,28.91,11111222 
TABS,ioos:station:wmo:42045:1,2002-09-13T20:00:00Z,26.2168,-96.4998,-2.0,28.93,11111222 
TABS,ioos:station:wmo:42045:1,2002-09-13T20:30:00Z,26.2168,-96.4998,-2.0,28.95,11111222 
TABS,ioos:station:wmo:42045:1,2002-09-13T21:00:00Z,26.2168,-96.4998,-2.0,29.0,11111222 
TABS,ioos:station:wmo:42045:1,2002-09-13T21:30:00Z,26.2168,-96.4998,-2.0,28.96,11111222 
TABS,ioos:station:wmo:42045:1,2002-09-13T22:00:00Z,26.2168,-96.4998,-2.0,28.98,11111222 
TABS,ioos:station:wmo:42045:1,2002-09-13T22:30:00Z,26.2168,-96.4998,-2.0,29.0,11111222 
TABS,ioos:station:wmo:42045:1,2002-09-13T23:00:00Z,26.2168,-96.4998,-2.0,29.0,11111222 
TABS,ioos:station:wmo:42045:1,2002-09-13T23:30:00Z,26.2168,-96.4998,-2.0,29.0,11111222 
TABS,ioos:station:wmo:42045:1,2002-09-14T00:00:00Z,26.2168,-96.4998,-2.0,29.0,11111222 
TABS,ioos:station:wmo:42045:1,2002-09-14T00:30:00Z,26.2168,-96.4998,-2.0,28.99,11111222 
TABS,ioos:station:wmo:42045:1,2002-09-14T01:00:00Z,26.2168,-96.4998,-2.0,28.97,11111222 
TABS,ioos:station:wmo:42045:1,2002-09-14T01:30:00Z,26.2168,-96.4998,-2.0,28.95,11111222 
TABS,ioos:station:wmo:42045:1,2002-09-14T02:00:00Z,26.2168,-96.4998,-2.0,28.92,11111222 
TABS,ioos:station:wmo:42045:1,2002-09-14T02:30:00Z,26.2168,-96.4998,-2.0,28.91,11111222 
TABS,ioos:station:wmo:42045:1,2002-09-14T03:00:00Z,26.2168,-96.4998,-2.0,28.88,11111222 
TABS,ioos:station:wmo:42045:1,2002-09-14T03:30:00Z,26.2168,-96.4998,-2.0,28.9,11111222 
TABS,ioos:station:wmo:42045:1,2002-09-14T04:00:00Z,26.2168,-96.4998,-2.0,28.89,11111222 
TABS,ioos:station:wmo:42045:1,2002-09-14T04:30:00Z,26.2168,-96.4998,-2.0,28.88,11111222 
TABS,ioos:station:wmo:42045:1,2002-09-14T05:00:00Z,26.2168,-96.4998,-2.0,28.87,11111222 
TABS,ioos:station:wmo:42045:1,2002-09-14T05:30:00Z,26.2168,-96.4998,-2.0,28.88,11111222 
TABS,ioos:station:wmo:42045:1,2002-09-14T06:00:00Z,26.2168,-96.4998,-2.0,28.87,11111222 
TABS,ioos:station:wmo:42045:1,2002-09-14T06:30:00Z,26.2168,-96.4998,-2.0,28.83,11111222 
TABS,ioos:station:wmo:42045:1,2002-09-14T07:00:00Z,26.2168,-96.4998,-2.0,28.81,11111222 
TABS,ioos:station:wmo:42045:1,2002-09-14T07:30:00Z,26.2168,-96.4998,-2.0,28.78,11111222 
TABS,ioos:station:wmo:42045:1,2002-09-14T08:00:00Z,26.2168,-96.4998,-2.0,28.76,11111222 
TABS,ioos:station:wmo:42045:1,2002-09-14T08:30:00Z,26.2168,-96.4998,-2.0,28.74,11111222 
TABS,ioos:station:wmo:42045:1,2002-09-14T09:00:00Z,26.2168,-96.4998,-2.0,28.72,11111222 
TABS,ioos:station:wmo:42045:1,2002-09-14T09:30:00Z,26.2168,-96.4998,-2.0,28.68,11111222 
TABS,ioos:station:wmo:42045:1,2002-09-14T10:00:00Z,26.2168,-96.4998,-2.0,28.68,11111222 
TABS,ioos:station:wmo:42045:1,2002-09-14T10:30:00Z,26.2168,-96.4998,-2.0,28.67,11111222 
TABS,ioos:station:wmo:42045:1,2002-09-14T11:00:00Z,26.2168,-96.4998,-2.0,28.67,11111222 
TABS,ioos:station:wmo:42045:1,2002-09-14T11:30:00Z,26.2168,-96.4998,-2.0,28.66,11111222 
TABS,ioos:station:wmo:42045:1,2002-09-14T12:00:00Z,26.2168,-96.4998,-2.0,28.66,11111222 
TABS,ioos:station:wmo:42045:1,2002-09-14T12:30:00Z,26.2168,-96.4998,-2.0,28.67,11111222 
TABS,ioos:station:wmo:42045:1,2002-09-14T13:00:00Z,26.2168,-96.4998,-2.0,28.67,11111222 
TABS,ioos:station:wmo:42045:1,2002-09-14T13:30:00Z,26.2168,-96.4998,-2.0,28.67,11111222 
TABS,ioos:station:wmo:42045:1,2002-09-14T14:00:00Z,26.2168,-96.4998,-2.0,28.68,11111222 
TABS,ioos:station:wmo:42045:1,2002-09-14T14:30:00Z,26.2168,-96.4998,-2.0,28.68,11111222 
TABS,ioos:station:wmo:42045:1,2002-09-14T15:00:00Z,26.2168,-96.4998,-2.0,28.7,11111222 
TABS,ioos:station:wmo:42045:1,2002-09-14T15:30:00Z,26.2168,-96.4998,-2.0,28.7,11111222 
TABS,ioos:station:wmo:42045:1,2002-09-14T16:00:00Z,26.2168,-96.4998,-2.0,28.73,11111222 
TABS,ioos:station:wmo:42045:1,2002-09-14T16:30:00Z,26.2168,-96.4998,-2.0,28.76,11111222 
TABS,ioos:station:wmo:42045:1,2002-09-14T17:00:00Z,26.2168,-96.4998,-2.0,28.78,11111222 
TABS,ioos:station:wmo:42045:1,2002-09-14T17:30:00Z,26.2168,-96.4998,-2.0,28.83,11111222 
TABS,ioos:station:wmo:42045:1,2002-09-14T18:00:00Z,26.2168,-96.4998,-2.0,28.84,11111222 
TABS,ioos:station:wmo:42045:1,2002-09-14T18:30:00Z,26.2168,-96.4998,-2.0,28.88,11111222 
TABS,ioos:station:wmo:42045:1,2002-09-14T19:00:00Z,26.2168,-96.4998,-2.0,28.95,11111222 
TABS,ioos:station:wmo:42045:1,2002-09-14T19:30:00Z,26.2168,-96.4998,-2.0,29.02,11111222 
TABS,ioos:station:wmo:42045:1,2002-09-14T20:00:00Z,26.2168,-96.4998,-2.0,29.1,11111222 
TABS,ioos:station:wmo:42045:1,2002-09-14T20:30:00Z,26.2168,-96.4998,-2.0,29.17,11111222 
TABS,ioos:station:wmo:42045:1,2002-09-14T21:00:00Z,26.2168,-96.4998,-2.0,29.16,11111222 
TABS,ioos:station:wmo:42045:1,2002-09-14T21:30:00Z,26.2168,-96.4998,-2.0,29.19,11111222 
TABS,ioos:station:wmo:42045:1,2002-09-14T22:00:00Z,26.2168,-96.4998,-2.0,29.22,11111222 
TABS,ioos:station:wmo:42045:1,2002-09-14T22:30:00Z,26.2168,-96.4998,-2.0,29.22,11111222 
TABS,ioos:station:wmo:42045:1,2002-09-14T23:00:00Z,26.2168,-96.4998,-2.0,29.26,11111222 
TABS,ioos:station:wmo:42045:1,2002-09-14T23:30:00Z,26.2168,-96.4998,-2.0,29.26,11111222 
TABS,ioos:station:wmo:42045:1,2002-09-15T00:00:00Z,26.2168,-96.4998,-2.0,29.19,11111222 
TABS,ioos:station:wmo:42045:1,2002-09-15T00:30:00Z,26.2168,-96.4998,-2.0,29.15,11111222 
TABS,ioos:station:wmo:42045:1,2002-09-15T01:00:00Z,26.2168,-96.4998,-2.0,29.13,11111222 
TABS,ioos:station:wmo:42045:1,2002-09-15T01:30:00Z,26.2168,-96.4998,-2.0,29.11,11111222 
TABS,ioos:station:wmo:42045:1,2002-09-15T02:00:00Z,26.2168,-96.4998,-2.0,29.08,11111222 
TABS,ioos:station:wmo:42045:1,2002-09-15T02:30:00Z,26.2168,-96.4998,-2.0,29.07,11111222 
TABS,ioos:station:wmo:42045:1,2002-09-15T03:00:00Z,26.2168,-96.4998,-2.0,29.04,11111222 
TABS,ioos:station:wmo:42045:1,2002-09-15T03:30:00Z,26.2168,-96.4998,-2.0,29.02,11111222 
TABS,ioos:station:wmo:42045:1,2002-09-15T04:00:00Z,26.2168,-96.4998,-2.0,29.09,11111222 
TABS,ioos:station:wmo:42045:1,2002-09-15T04:30:00Z,26.2168,-96.4998,-2.0,29.03,11111222 
TABS,ioos:station:wmo:42045:1,2002-09-15T05:00:00Z,26.2168,-96.4998,-2.0,29.02,11111222 
TABS,ioos:station:wmo:42045:1,2002-09-15T05:30:00Z,26.2168,-96.4998,-2.0,28.98,11111222 
TABS,ioos:station:wmo:42045:1,2002-09-15T06:00:00Z,26.2168,-96.4998,-2.0,28.96,11111222 
TABS,ioos:station:wmo:42045:1,2002-09-15T06:30:00Z,26.2168,-96.4998,-2.0,28.97,11111222 
TABS,ioos:station:wmo:42045:1,2002-09-15T07:00:00Z,26.2168,-96.4998,-2.0,28.95,11111222 
TABS,ioos:station:wmo:42045:1,2002-09-15T07:30:00Z,26.2168,-96.4998,-2.0,28.94,11111222 
TABS,ioos:station:wmo:42045:1,2002-09-15T08:00:00Z,26.2168,-96.4998,-2.0,28.85,11111222 
TABS,ioos:station:wmo:42045:1,2002-09-15T08:30:00Z,26.2168,-96.4998,-2.0,28.85,11111222 
TABS,ioos:station:wmo:42045:1,2002-09-15T09:00:00Z,26.2168,-96.4998,-2.0,28.86,11111222 
TABS,ioos:station:wmo:42045:1,2002-09-15T09:30:00Z,26.2168,-96.4998,-2.0,28.84,11111222 
TABS,ioos:station:wmo:42045:1,2002-09-15T10:00:00Z,26.2168,-96.4998,-2.0,28.83,11111222 
TABS,ioos:station:wmo:42045:1,2002-09-15T10:30:00Z,26.2168,-96.4998,-2.0,28.82,11111222 
TABS,ioos:station:wmo:42045:1,2002-09-15T11:00:00Z,26.2168,-96.4998,-2.0,28.8,11111222 
TABS,ioos:station:wmo:42045:1,2002-09-15T11:30:00Z,26.2168,-96.4998,-2.0,28.8,11111222 
TABS,ioos:station:wmo:42045:1,2002-09-15T12:00:00Z,26.2168,-96.4998,-2.0,28.82,11111222 
TABS,ioos:station:wmo:42045:1,2002-09-15T12:30:00Z,26.2168,-96.4998,-2.0,28.85,11111222 
TABS,ioos:station:wmo:42045:1,2002-09-15T13:00:00Z,26.2168,-96.4998,-2.0,28.86,11111222 
TABS,ioos:station:wmo:42045:1,2002-09-15T13:30:00Z,26.2168,-96.4998,-2.0,28.77,11111222 
TABS,ioos:station:wmo:42045:1,2002-09-15T14:00:00Z,26.2168,-96.4998,-2.0,28.75,11111222 
TABS,ioos:station:wmo:42045:1,2002-09-15T14:30:00Z,26.2168,-96.4998,-2.0,28.7,11111222 
TABS,ioos:station:wmo:42045:1,2002-09-15T15:00:00Z,26.2168,-96.4998,-2.0,28.73,11111222 
TABS,ioos:station:wmo:42045:1,2002-09-15T15:30:00Z,26.2168,-96.4998,-2.0,28.76,11111222 
TABS,ioos:station:wmo:42045:1,2002-09-15T16:00:00Z,26.2168,-96.4998,-2.0,28.8,11111222 
TABS,ioos:station:wmo:42045:1,2002-09-15T16:30:00Z,26.2168,-96.4998,-2.0,28.85,11111222 
TABS,ioos:station:wmo:42045:1,2002-09-15T17:00:00Z,26.2168,-96.4998,-2.0,28.9,11111222 
TABS,ioos:station:wmo:42045:1,2002-09-15T17:30:00Z,26.2168,-96.4998,-2.0,28.98,11111222 
TABS,ioos:station:wmo:42045:1,2002-09-15T18:00:00Z,26.2168,-96.4998,-2.0,29.02,11111222 
TABS,ioos:station:wmo:42045:1,2002-09-15T18:30:00Z,26.2168,-96.4998,-2.0,29.09,11111222 
TABS,ioos:station:wmo:42045:1,2002-09-15T19:00:00Z,26.2168,-96.4998,-2.0,29.22,11111222 
TABS,ioos:station:wmo:42045:1,2002-09-15T19:30:00Z,26.2168,-96.4998,-2.0,29.28,11111222 
TABS,ioos:station:wmo:42045:1,2002-09-15T20:00:00Z,26.2168,-96.4998,-2.0,29.3,11111222 
TABS,ioos:station:wmo:42045:1,2002-09-15T20:30:00Z,26.2168,-96.4998,-2.0,29.26,11111222 
TABS,ioos:station:wmo:42045:1,2002-09-15T21:00:00Z,26.2168,-96.4998,-2.0,29.34,11111222 
TABS,ioos:station:wmo:42045:1,2002-09-15T21:30:00Z,26.2168,-96.4998,-2.0,29.46,11111222 
TABS,ioos:station:wmo:42045:1,2002-09-15T22:00:00Z,26.2168,-96.4998,-2.0,29.5,11111222 
TABS,ioos:station:wmo:42045:1,2002-09-15T22:30:00Z,26.2168,-96.4998,-2.0,29.47,11111222 
TABS,ioos:station:wmo:42045:1,2002-09-15T23:00:00Z,26.2168,-96.4998,-2.0,29.45,11111222 
TABS,ioos:station:wmo:42045:1,2002-09-15T23:30:00Z,26.2168,-96.4998,-2.0,29.46,11111222 
TABS,ioos:station:wmo:42045:1,2002-09-16T00:00:00Z,26.2168,-96.4998,-2.0,29.36,11111222 
TABS,ioos:station:wmo:42045:1,2002-09-16T00:30:00Z,26.2168,-96.4998,-2.0,29.31,11111222 
TABS,ioos:station:wmo:42045:1,2002-09-16T01:00:00Z,26.2168,-96.4998,-2.0,29.28,11111222 
TABS,ioos:station:wmo:42045:1,2002-09-16T01:30:00Z,26.2168,-96.4998,-2.0,29.21,11111222 
TABS,ioos:station:wmo:42045:1,2002-09-16T02:00:00Z,26.2168,-96.4998,-2.0,29.28,11111222 
TABS,ioos:station:wmo:42045:1,2002-09-16T02:30:00Z,26.2168,-96.4998,-2.0,29.32,11111222 
TABS,ioos:station:wmo:42045:1,2002-09-16T03:00:00Z,26.2168,-96.4998,-2.0,29.26,11111222 
TABS,ioos:station:wmo:42045:1,2002-09-16T03:30:00Z,26.2168,-96.4998,-2.0,29.18,11111222 
TABS,ioos:station:wmo:42045:1,2002-09-16T04:00:00Z,26.2168,-96.4998,-2.0,29.22,11111222 
TABS,ioos:station:wmo:42045:1,2002-09-16T04:30:00Z,26.2168,-96.4998,-2.0,29.22,11111222 
TABS,ioos:station:wmo:42045:1,2002-09-16T05:00:00Z,26.2168,-96.4998,-2.0,29.28,11111222 
TABS,ioos:station:wmo:42045:1,2002-09-16T05:30:00Z,26.2168,-96.4998,-2.0,29.3,11111222 
TABS,ioos:station:wmo:42045:1,2002-09-16T06:00:00Z,26.2168,-96.4998,-2.0,29.29,11111222 
TABS,ioos:station:wmo:42045:1,2002-09-16T06:30:00Z,26.2168,-96.4998,-2.0,29.28,11111222 
TABS,ioos:station:wmo:42045:1,2002-09-16T07:00:00Z,26.2168,-96.4998,-2.0,29.28,11111222 
TABS,ioos:station:wmo:42045:1,2002-09-16T07:30:00Z,26.2168,-96.4998,-2.0,29.28,11111222 
TABS,ioos:station:wmo:42045:1,2002-09-16T08:00:00Z,26.2168,-96.4998,-2.0,29.23,11111222 
TABS,ioos:station:wmo:42045:1,2002-09-16T08:30:00Z,26.2168,-96.4998,-2.0,29.2,11111222 
TABS,ioos:station:wmo:42045:1,2002-09-16T09:00:00Z,26.2168,-96.4998,-2.0,29.19,11111222 
TABS,ioos:station:wmo:42045:1,2002-09-16T09:30:00Z,26.2168,-96.4998,-2.0,29.19,11111222 
TABS,ioos:station:wmo:42045:1,2002-09-16T10:00:00Z,26.2168,-96.4998,-2.0,29.17,11111222 
TABS,ioos:station:wmo:42045:1,2002-09-16T10:30:00Z,26.2168,-96.4998,-2.0,29.13,11111222 
TABS,ioos:station:wmo:42045:1,2002-09-16T11:00:00Z,26.2168,-96.4998,-2.0,29.14,11111222 
TABS,ioos:station:wmo:42045:1,2002-09-16T11:30:00Z,26.2168,-96.4998,-2.0,29.16,11111222 
TABS,ioos:station:wmo:42045:1,2002-09-16T12:00:00Z,26.2168,-96.4998,-2.0,29.13,11111222 
TABS,ioos:station:wmo:42045:1,2002-09-16T12:30:00Z,26.2168,-96.4998,-2.0,29.12,11111222 
TABS,ioos:station:wmo:42045:1,2002-09-16T13:00:00Z,26.2168,-96.4998,-2.0,29.12,11111222 
TABS,ioos:station:wmo:42045:1,2002-09-16T13:30:00Z,26.2168,-96.4998,-2.0,29.16,11111222 
TABS,ioos:station:wmo:42045:1,2002-09-16T14:00:00Z,26.2168,-96.4998,-2.0,29.18,11111222 
TABS,ioos:station:wmo:42045:1,2002-09-16T14:30:00Z,26.2168,-96.4998,-2.0,29.15,11111222 
TABS,ioos:station:wmo:42045:1,2002-09-16T15:00:00Z,26.2168,-96.4998,-2.0,29.05,11111222 
TABS,ioos:station:wmo:42045:1,2002-09-16T15:30:00Z,26.2168,-96.4998,-2.0,29.07,11111222 
TABS,ioos:station:wmo:42045:1,2002-09-16T16:00:00Z,26.2168,-96.4998,-2.0,29.0,11111222 
TABS,ioos:station:wmo:42045:1,2002-09-16T16:30:00Z,26.2168,-96.4998,-2.0,28.99,11111222 
TABS,ioos:station:wmo:42045:1,2002-09-16T17:00:00Z,26.2168,-96.4998,-2.0,29.04,11111222 
TABS,ioos:station:wmo:42045:1,2002-09-16T17:30:00Z,26.2168,-96.4998,-2.0,29.06,11111222 
TABS,ioos:station:wmo:42045:1,2002-09-16T18:00:00Z,26.2168,-96.4998,-2.0,29.06,11111222 
TABS,ioos:station:wmo:42045:1,2002-09-16T18:30:00Z,26.2168,-96.4998,-2.0,29.03,11111222 
TABS,ioos:station:wmo:42045:1,2002-09-16T19:00:00Z,26.2168,-96.4998,-2.0,29.03,11111222 
TABS,ioos:station:wmo:42045:1,2002-09-16T19:30:00Z,26.2168,-96.4998,-2.0,29.01,11111222 
TABS,ioos:station:wmo:42045:1,2002-09-16T20:00:00Z,26.2168,-96.4998,-2.0,29.03,11111222 
TABS,ioos:station:wmo:42045:1,2002-09-16T20:30:00Z,26.2168,-96.4998,-2.0,29.03,11111222 
TABS,ioos:station:wmo:42045:1,2002-09-16T21:00:00Z,26.2168,-96.4998,-2.0,29.07,11111222 
TABS,ioos:station:wmo:42045:1,2002-09-16T21:30:00Z,26.2168,-96.4998,-2.0,29.18,11111222 
TABS,ioos:station:wmo:42045:1,2002-09-16T22:00:00Z,26.2168,-96.4998,-2.0,29.22,11111222 
TABS,ioos:station:wmo:42045:1,2002-09-16T22:30:00Z,26.2168,-96.4998,-2.0,29.21,11111222 
TABS,ioos:station:wmo:42045:1,2002-09-16T23:00:00Z,26.2168,-96.4998,-2.0,29.22,11111222 
TABS,ioos:station:wmo:42045:1,2002-09-16T23:30:00Z,26.2168,-96.4998,-2.0,29.25,11111222 
TABS,ioos:station:wmo:42045:1,2002-09-17T00:00:00Z,26.2168,-96.4998,-2.0,29.26,11111222 
TABS,ioos:station:wmo:42045:1,2002-09-17T00:30:00Z,26.2168,-96.4998,-2.0,29.21,11111222 
TABS,ioos:station:wmo:42045:1,2002-09-17T01:00:00Z,26.2168,-96.4998,-2.0,29.19,11111222 
TABS,ioos:station:wmo:42045:1,2002-09-17T01:30:00Z,26.2168,-96.4998,-2.0,29.21,11111222 
TABS,ioos:station:wmo:42045:1,2002-09-17T02:00:00Z,26.2168,-96.4998,-2.0,29.2,11111222 
TABS,ioos:station:wmo:42045:1,2002-09-17T02:30:00Z,26.2168,-96.4998,-2.0,29.2,11111222 
TABS,ioos:station:wmo:42045:1,2002-09-17T03:00:00Z,26.2168,-96.4998,-2.0,29.19,11111222 
TABS,ioos:station:wmo:42045:1,2002-09-17T03:30:00Z,26.2168,-96.4998,-2.0,29.23,11111222 
TABS,ioos:station:wmo:42045:1,2002-09-17T04:00:00Z,26.2168,-96.4998,-2.0,29.17,11111222 
TABS,ioos:station:wmo:42045:1,2002-09-17T04:30:00Z,26.2168,-96.4998,-2.0,29.09,11111222 
TABS,ioos:station:wmo:42045:1,2002-09-17T05:00:00Z,26.2168,-96.4998,-2.0,29.07,11111222 
TABS,ioos:station:wmo:42045:1,2002-09-17T05:30:00Z,26.2168,-96.4998,-2.0,29.02,11111222 
TABS,ioos:station:wmo:42045:1,2002-09-17T06:00:00Z,26.2168,-96.4998,-2.0,29.02,11111222 
TABS,ioos:station:wmo:42045:1,2002-09-17T06:30:00Z,26.2168,-96.4998,-2.0,29.03,11111222 
TABS,ioos:station:wmo:42045:1,2002-09-17T07:00:00Z,26.2168,-96.4998,-2.0,29.07,11111222 
TABS,ioos:station:wmo:42045:1,2002-09-17T07:30:00Z,26.2168,-96.4998,-2.0,29.09,11111222 
TABS,ioos:station:wmo:42045:1,2002-09-17T08:00:00Z,26.2168,-96.4998,-2.0,29.17,11111222 
TABS,ioos:station:wmo:42045:1,2002-09-17T08:30:00Z,26.2168,-96.4998,-2.0,29.15,11111222 
TABS,ioos:station:wmo:42045:1,2002-09-17T09:00:00Z,26.2168,-96.4998,-2.0,29.12,11111222 
TABS,ioos:station:wmo:42045:1,2002-09-17T09:30:00Z,26.2168,-96.4998,-2.0,29.08,11111222 
TABS,ioos:station:wmo:42045:1,2002-09-17T10:00:00Z,26.2168,-96.4998,-2.0,29.05,11111222 
TABS,ioos:station:wmo:42045:1,2002-09-17T10:30:00Z,26.2168,-96.4998,-2.0,29.03,11111222 
TABS,ioos:station:wmo:42045:1,2002-09-17T11:00:00Z,26.2168,-96.4998,-2.0,29.0,11111222 
TABS,ioos:station:wmo:42045:1,2002-09-17T11:30:00Z,26.2168,-96.4998,-2.0,28.92,11111222 
TABS,ioos:station:wmo:42045:1,2002-09-17T12:00:00Z,26.2168,-96.4998,-2.0,28.74,11111222 
TABS,ioos:station:wmo:42045:1,2002-09-17T12:30:00Z,26.2168,-96.4998,-2.0,28.7,11111222 
TABS,ioos:station:wmo:42045:1,2002-09-17T13:00:00Z,26.2168,-96.4998,-2.0,28.74,11111222 
TABS,ioos:station:wmo:42045:1,2002-09-17T13:30:00Z,26.2168,-96.4998,-2.0,28.69,11111222 
TABS,ioos:station:wmo:42045:1,2002-09-17T14:00:00Z,26.2168,-96.4998,-2.0,28.71,11111222 
TABS,ioos:station:wmo:42045:1,2002-09-17T14:30:00Z,26.2168,-96.4998,-2.0,28.77,11111222 
TABS,ioos:station:wmo:42045:1,2002-09-17T15:00:00Z,26.2168,-96.4998,-2.0,28.8,11111222 
TABS,ioos:station:wmo:42045:1,2002-09-17T15:30:00Z,26.2168,-96.4998,-2.0,28.86,11111222 
TABS,ioos:station:wmo:42045:1,2002-09-17T16:00:00Z,26.2168,-96.4998,-2.0,28.84,11111222 
TABS,ioos:station:wmo:42045:1,2002-09-17T16:30:00Z,26.2168,-96.4998,-2.0,28.93,11111222 
TABS,ioos:station:wmo:42045:1,2002-09-17T17:00:00Z,26.2168,-96.4998,-2.0,28.99,11111222 
TABS,ioos:station:wmo:42045:1,2002-09-17T17:30:00Z,26.2168,-96.4998,-2.0,29.0,11111222 
TABS,ioos:station:wmo:42045:1,2002-09-17T18:00:00Z,26.2168,-96.4998,-2.0,29.05,11111222 
TABS,ioos:station:wmo:42045:1,2002-09-17T18:30:00Z,26.2168,-96.4998,-2.0,29.08,11111222 
TABS,ioos:station:wmo:42045:1,2002-09-17T19:00:00Z,26.2168,-96.4998,-2.0,29.16,11111222 
TABS,ioos:station:wmo:42045:1,2002-09-17T19:30:00Z,26.2168,-96.4998,-2.0,29.2,11111222 
TABS,ioos:station:wmo:42045:1,2002-09-17T20:00:00Z,26.2168,-96.4998,-2.0,29.22,11111222 
TABS,ioos:station:wmo:42045:1,2002-09-17T20:30:00Z,26.2168,-96.4998,-2.0,29.21,11111222 
TABS,ioos:station:wmo:42045:1,2002-09-17T21:00:00Z,26.2168,-96.4998,-2.0,29.15,11111222 
TABS,ioos:station:wmo:42045:1,2002-09-17T21:30:00Z,26.2168,-96.4998,-2.0,29.29,11111222 
TABS,ioos:station:wmo:42045:1,2002-09-17T22:00:00Z,26.2168,-96.4998,-2.0,29.23,11111222 
TABS,ioos:station:wmo:42045:1,2002-09-17T22:30:00Z,26.2168,-96.4998,-2.0,29.26,11111222 
TABS,ioos:station:wmo:42045:1,2002-09-17T23:00:00Z,26.2168,-96.4998,-2.0,29.39,11111222 
TABS,ioos:station:wmo:42045:1,2002-09-17T23:30:00Z,26.2168,-96.4998,-2.0,29.35,11111222 
TABS,ioos:station:wmo:42045:1,2002-09-18T00:00:00Z,26.2168,-96.4998,-2.0,29.28,11111222 
TABS,ioos:station:wmo:42045:1,2002-09-18T00:30:00Z,26.2168,-96.4998,-2.0,29.29,11111222 
TABS,ioos:station:wmo:42045:1,2002-09-18T01:00:00Z,26.2168,-96.4998,-2.0,29.3,11111222 
TABS,ioos:station:wmo:42045:1,2002-09-18T01:30:00Z,26.2168,-96.4998,-2.0,29.32,11111222 
TABS,ioos:station:wmo:42045:1,2002-09-18T02:00:00Z,26.2168,-96.4998,-2.0,29.35,11111222 
TABS,ioos:station:wmo:42045:1,2002-09-18T02:30:00Z,26.2168,-96.4998,-2.0,29.39,11111222 
TABS,ioos:station:wmo:42045:1,2002-09-18T03:00:00Z,26.2168,-96.4998,-2.0,29.4,11111222 
TABS,ioos:station:wmo:42045:1,2002-09-18T03:30:00Z,26.2168,-96.4998,-2.0,29.4,11111222 
TABS,ioos:station:wmo:42045:1,2002-09-18T04:00:00Z,26.2168,-96.4998,-2.0,29.46,11111222 
TABS,ioos:station:wmo:42045:1,2002-09-18T04:30:00Z,26.2168,-96.4998,-2.0,29.32,11111222 
TABS,ioos:station:wmo:42045:1,2002-09-18T05:00:00Z,26.2168,-96.4998,-2.0,29.27,11111222 
TABS,ioos:station:wmo:42045:1,2002-09-18T05:30:00Z,26.2168,-96.4998,-2.0,29.25,11111222 
TABS,ioos:station:wmo:42045:1,2002-09-18T06:00:00Z,26.2168,-96.4998,-2.0,29.25,11111222 
TABS,ioos:station:wmo:42045:1,2002-09-18T06:30:00Z,26.2168,-96.4998,-2.0,29.26,11111222 
TABS,ioos:station:wmo:42045:1,2002-09-18T07:00:00Z,26.2168,-96.4998,-2.0,29.26,11111222 
TABS,ioos:station:wmo:42045:1,2002-09-18T07:30:00Z,26.2168,-96.4998,-2.0,29.25,11111222 
TABS,ioos:station:wmo:42045:1,2002-09-18T08:00:00Z,26.2168,-96.4998,-2.0,29.23,11111222 
TABS,ioos:station:wmo:42045:1,2002-09-18T08:30:00Z,26.2168,-96.4998,-2.0,29.22,11111222 
TABS,ioos:station:wmo:42045:1,2002-09-18T09:00:00Z,26.2168,-96.4998,-2.0,29.19,11111222 
TABS,ioos:station:wmo:42045:1,2002-09-18T09:30:00Z,26.2168,-96.4998,-2.0,29.2,11111222 